Seattle, WA
on Saturday, November 10, 2012

Saturday
Previous Day Next Day
Daily Summary
 ActualAverageRecord
Temperature
Mean Temperature °F / °C 47°F / 8°C  
Max Temperature 46°F / 8°C 52°F / 11°C 63°F / 17°C (1997)
Min Temperature 31°F / -1°C 41°F / 5°C 30°F / -1°C (1948)
Degree Days
Heating Degree Days 26 18  
Month to date heating degree days 152 173  
Since 1 July heating degree days 645 770  
Cooling Degree Days 0 0  
Month to date cooling degree days 0 0  
Year to date cooling degree days 177 189  
Moisture
Dew Point 26°F / -3°C   
Average Humidity 61    
Maximum Humidity 85    
Minimum Humidity 37    
Precipitation
Precipitation T in / T cm 0.22 in / 5.59 cm 1.08 in / 2.74 cm (1962)
Month to date precipitation 0.98 2.04  
Year to date precipitation 34.11 27.61  
Snow
Snow 0.00 in / 0.00 cm in / cm T in / T cm (1986)
Month to date snowfall 0.0  
Since 1 July snowfall 0.0  
Snow Depth 0.00 in / 0.00 cm   
Wind
Wind Speed 5 mph / 8 km/h   
Max Wind Speed 12 mph / 19 km/h   
Max Gust Speed 15 mph / 24 km/h   
Visibility 10 miles / 16 kilometers   
Events     

Key: T is trace of precipitation, MM is missing value
Source: NWS Daily Summary
Time(PST)TemperatureDew PointHumidity Pressure Visibility Wind DirectionWind SpeedGust SpeedPrecipitationEvents Conditions
12:53 AM 34.0°F / 1.1°C 28.0°F / -2.2°C 79% 29.98 in / 1015.2 hPa 10.0 miles / 16.1 kilometers ESE 5.8 mph / 9.3 km/h - N/A   Clear
1:53 AM 33.1°F / 0.6°C 28.0°F / -2.2°C 82% 30.00 in / 1015.8 hPa 10.0 miles / 16.1 kilometers ESE 5.8 mph / 9.3 km/h - N/A   Clear
2:53 AM 32.0°F / 0.0°C 27.0°F / -2.8°C 82% 30.01 in / 1016.2 hPa 10.0 miles / 16.1 kilometers ESE 3.5 mph / 5.6 km/h - N/A   Clear
3:53 AM 32.0°F / 0.0°C 28.0°F / -2.2°C 85% 30.02 in / 1016.4 hPa 10.0 miles / 16.1 kilometers ESE 4.6 mph / 7.4 km/h - N/A   Partly Cloudy
4:53 AM 32.0°F / 0.0°C 27.0°F / -2.8°C 82% 30.04 in / 1017.1 hPa 10.0 miles / 16.1 kilometers ESE 3.5 mph / 5.6 km/h - N/A   Mostly Cloudy
5:53 AM 33.1°F / 0.6°C 28.0°F / -2.2°C 82% 30.06 in / 1017.8 hPa 10.0 miles / 16.1 kilometers ESE 3.5 mph / 5.6 km/h - N/A   Mostly Cloudy
6:53 AM 32.0°F / 0.0°C 27.0°F / -2.8°C 82% 30.06 in / 1018.0 hPa 10.0 miles / 16.1 kilometers SE 3.5 mph / 5.6 km/h - N/A   Mostly Cloudy
7:53 AM 34.0°F / 1.1°C 28.0°F / -2.2°C 79% 30.09 in / 1019.0 hPa 10.0 miles / 16.1 kilometers SE 4.6 mph / 7.4 km/h - N/A   Mostly Cloudy
8:53 AM 37.0°F / 2.8°C 30.0°F / -1.1°C 76% 30.10 in / 1019.3 hPa 10.0 miles / 16.1 kilometers SSE 3.5 mph / 5.6 km/h - N/A   Scattered Clouds
9:53 AM 41.0°F / 5.0°C 28.9°F / -1.7°C 62% 30.11 in / 1019.6 hPa 10.0 miles / 16.1 kilometers NNW 5.8 mph / 9.3 km/h - N/A   Scattered Clouds
10:53 AM 42.1°F / 5.6°C 28.9°F / -1.7°C 60% 30.14 in / 1020.4 hPa 10.0 miles / 16.1 kilometers WNW 6.9 mph / 11.1 km/h - N/A   Scattered Clouds
11:53 AM 44.1°F / 6.7°C 28.0°F / -2.2°C 53% 30.14 in / 1020.6 hPa 10.0 miles / 16.1 kilometers NNW 4.6 mph / 7.4 km/h - N/A   Scattered Clouds
12:53 PM 45.0°F / 7.2°C 25.0°F / -3.9°C 46% 30.16 in / 1021.2 hPa 10.0 miles / 16.1 kilometers North 8.1 mph / 13.0 km/h - N/A   Scattered Clouds
1:53 PM 46.0°F / 7.8°C 23.0°F / -5.0°C 40% 30.17 in / 1021.5 hPa 10.0 miles / 16.1 kilometers North 8.1 mph / 13.0 km/h - N/A   Scattered Clouds
2:53 PM 46.0°F / 7.8°C 21.9°F / -5.6°C 39% 30.16 in / 1021.3 hPa 10.0 miles / 16.1 kilometers NNE 8.1 mph / 13.0 km/h - N/A   Partly Cloudy
3:53 PM 44.1°F / 6.7°C 21.9°F / -5.6°C 42% 30.18 in / 1021.8 hPa 10.0 miles / 16.1 kilometers NNE 4.6 mph / 7.4 km/h - N/A   Scattered Clouds
4:53 PM 39.9°F / 4.4°C 21.0°F / -6.1°C 47% 30.19 in / 1022.3 hPa 10.0 miles / 16.1 kilometers Calm Calm - N/A   Partly Cloudy
5:53 PM 39.9°F / 4.4°C 25.0°F / -3.9°C 55% 30.20 in / 1022.6 hPa 10.0 miles / 16.1 kilometers ENE 4.6 mph / 7.4 km/h - N/A   Clear
6:53 PM 37.9°F / 3.3°C 25.0°F / -3.9°C 60% 30.22 in / 1023.1 hPa 10.0 miles / 16.1 kilometers Calm Calm - N/A   Clear
7:53 PM 37.4°F / 3.0°C 24.8°F / -4.0°C 60% 30.19 in / 1022.2 hPa 10.0 miles / 16.1 kilometers ESE 4.6 mph / 7.4 km/h - N/A   Clear
8:53 PM 35.1°F / 1.7°C 27.0°F / -2.8°C 72% 30.22 in / 1023.3 hPa 10.0 miles / 16.1 kilometers SE 4.6 mph / 7.4 km/h - N/A   Mostly Cloudy
9:53 PM 35.1°F / 1.7°C 28.0°F / -2.2°C 76% 30.23 in / 1023.7 hPa 10.0 miles / 16.1 kilometers SE 5.8 mph / 9.3 km/h - N/A   Mostly Cloudy
10:53 PM 34.0°F / 1.1°C 28.0°F / -2.2°C 79% 30.24 in / 1023.9 hPa 10.0 miles / 16.1 kilometers SE 6.9 mph / 11.1 km/h - N/A   Mostly Cloudy
11:53 PM 35.1°F / 1.7°C 27.0°F / -2.8°C 72% 30.25 in / 1024.1 hPa 10.0 miles / 16.1 kilometers ESE 6.9 mph / 11.1 km/h - N/A   Mostly Cloudy
Moon Phase
Nov. 10 Nov. 13 Nov. 20 Nov. 28 Dec. 06
Sunrise:07:07 AM (PST) Moon Rise:03:05 AM (PST)11/10
Sunset:04:38 PM (PST) Moon Set:02:39 PM (PST)11/10

Copyright © 2014 The Weather Underground, Inc.